Regional Weather Roundup
Issued by NWS

Home | Current Version | Previous Version | Graphics & Text | Print | Product List | Glossary On
Versions: 1 2 3 4 5 6 7 8 9 10 11 12 13 14 15 16 17 18 19 20 21 22 23 24 25 26 27 28 29 30 31 32 33 34 35 36 37 38 39 40 41 42 43 44 45 46 47 48 49 50
671
ASUS43 KDMX 231101
RWRIA

WEATHER ROUNDUP FOR IOWA
NATIONAL WEATHER SERVICE DES MOINES IA
600 AM CDT FRI JUN 23 2017

NOTE: "FAIR" INDICATES FEW OR NO CLOUDS BELOW 12,000 FEET WITH NO
SIGNIFICANT WEATHER AND/OR OBSTRUCTIONS TO VISIBILITY.

* - THESE STATIONS ARE NOT NWS STATIONS...THUS NOT UNDER NWS
QUALITY CONTROL.  THEY ALSO DO NOT REPORT WEATHER SUCH
AS PRECIPITATION OR FOG.

IAZ001>003-012>014-020>022-031>034-043>046-231200-
   NORTHWEST IOWA

CITY           SKY/WX    TMP DP  RH WIND       PRES   REMARKS
CARROLL *      CLEAR     55  52  88 NW8       29.85R
CHEROKEE *     CLEAR     53  53  99 S3        29.87R
DENISON *      CLEAR     55  52  88 CALM      29.89R
LE MARS *      CLEAR     59  50  72 NW9G17    29.89R
ORANGE CITY *  PTCLDY    57  50  77 NW8       29.88R
SHELDON *      PTCLDY    55  50  82 NW12G17   29.85R
SIOUX CITY       N/A    N/A N/A N/A MISG      29.88R
SPENCER        PTCLDY    57  51  80 W13       29.84R
STORM LAKE *   CLEAR     55  52  88 W10       29.87R
$$

IAZ055>058-069>071-079>083-090>094-231200-
   SOUTHWEST IOWA

CITY           SKY/WX    TMP DP  RH WIND       PRES   REMARKS
ATLANTIC *     CLEAR     59  57  94 N5        29.84R
AUDUBON *      CLEAR     55  54  94 CALM      29.86R
CLARINDA *     CLOUDY    63  59  88 N5        29.84S
COUNCIL BLFS * CLEAR     61  55  82 N7        29.86R
CRESTON *      PTCLDY    63  61  94 N7        29.84R
HARLAN  *      CLEAR     57  54  88 N3        29.90R
LAMONI         CLOUDY    67  65  93 N7        29.79R
RED OAK *      CLEAR     61  59  94 CALM      29.83R
SHENANDOAH *   MOCLDY    63  61  94 CALM      29.84R
$$

IAZ047>049-059>061-072>074-084-231200-
   CENTRAL IOWA

CITY           SKY/WX    TMP DP  RH WIND       PRES   REMARKS
AMES           CLEAR     60  60 100 N5        29.80R
ANKENY *       PTCLDY    64  61  88 MISG      29.80R
BOONE *        CLEAR     59  57  94 NW7       29.81R
CHARITON *     CLOUDY    66  64  94 N7        29.77R
DES MOINES     CLOUDY    65  62  90 N7        29.79S
GRINNELL*      CLOUDY    65  63  93 N8        29.78S
KNOXVILLE *    CLOUDY    68  64  88 N6        29.76R
MARSHALLTOWN   PTCLDY    63  62  97 NW8       29.77F FOG
NEWTON *       CLOUDY    64  64 100 N8        29.79R
PELLA *        CLOUDY    66  65  95 N3        29.78R
PERRY *          N/A     60  58  96 NW5       29.82R
$$

IAZ004>006-015-016-023>025-035-036-231200-
   NORTH CENTRAL IOWA

CITY           SKY/WX    TMP DP  RH WIND       PRES   REMARKS
ALGONA *       CLEAR     55  54  94 SW5       29.82R
ESTHERVILLE    PTCLDY    58  53  84 NW13      29.81R
FORT DODGE *   CLEAR     57  52  82 W3        29.83R
MASON CITY     CLEAR     56  54  93 W5        29.81R
FOREST CITY *    N/A     54  46  76 CALM      29.80R
WEBSTER CITY * CLEAR     55  55 100 NW3       29.80R
IOWA FALLS *     N/A     59  58  95 W5        29.82R
$$

IAZ007>011-017>019-026>030-037>042-050>054-066-231200-
   NORTHEAST IOWA

CITY           SKY/WX    TMP DP  RH WIND       PRES   REMARKS
CEDAR RAPIDS   CLOUDY    65  65 100 N7        29.74S
CHARLES CITY * CLEAR     61  61 100 CALM      29.79R FOG
CLINTON *      LGT RAIN  66  64  93 NE17      29.69S
DECORAH *      FOG       63  63 100 NW5       29.75S VSB 1
DUBUQUE        CLOUDY    63  61  93 N8        29.75R
MONTICELLO *   CLOUDY    64  63  94 N5        29.74S
WATERLOO       CLOUDY    63  62  97 W5        29.76S FOG
$$

IAZ064-065-067-068-078-231200-
   EAST CENTRAL IOWA

CITY           SKY/WX    TMP DP  RH WIND       PRES   REMARKS
DAVENPORT      CLOUDY    67  63  87 NE14      29.72R
IOWA CITY      CLOUDY    70  63  78 N10       29.74R
MT. PLEASANT * LGT RAIN  68  67  95 N10G17    29.73R
MUSCATINE *    CLOUDY    70  64  83 N12G17    29.72S
QUAD CITIES    MOCLDY    69  65  86 NE9       29.70R
$$

IAZ062-063-075>077-085>089-095>099-231200-
   SOUTHEAST IOWA

CITY           SKY/WX    TMP DP  RH WIND       PRES   REMARKS
BURLINGTON     LGT RAIN  72  70  93 NW13      29.70R
FAIRFIELD *    CLOUDY    70  64  83 N13       29.74S
FORT MADISON * LGT RAIN  72  70  94 NW9G16    29.73R
KEOKUK *       LGT RAIN  72  70  94 N10G17    29.70S
OSKALOOSA *      N/A     67  66  95 CALM      29.76R
OTTUMWA        CLOUDY    69  67  93 N7        29.75S
WASHINGTON *   CLOUDY    68  64  88 VRB6      29.74S
$$

ABBREVIATIONS USED IN REMARKS
   TC - TEMPERATURES IN CELSIUS
  WCI - WIND CHILL INDEX
   HX - HEAT INDEX
  VSB - VISIBILITY
$$





USA.gov is the U.S. government's official web portal to all federal, state and local government web resources and services.